SCP
0 0 0 -0 -0 -0 -0 0 0 0 -0 -0 -0 -0 -0 -0 -0 -0 -0 -0 -0 0 0 0 0 0 0 0 0 0 0 0 0 0 0 0 0 0 0 0 0 0 0
0 0 0 0 0 -0 -0 0 0 0 0 0 -0 -0 -0 -0 -0 -0 -0 -0 -0 0 0 0 0 0 0 0 0 0 0 0 0 0 0 0 0 0 0 0 0 0 0
0 0 0 0 0 -0 -0 0 0 0 0 0 0 -0 0 -0 0 -0 -0 -0 -0 -0 0 0 0 0 0 0 0 0 0 0 0 0 0 0 0 0 0 0 0 0 0
0 0 0 0 0 0 0 0 0 0 0 -0 0 0 0 0 0 -0 -0 -0 -0 -0 0 0 0 0 0 0 0 0 0 0 0 0 0 0 0 0 0 0 0 0 0
0 0 0 0 0 0 0 0 0 0 -0 0 0 0 0 0 0 0 0 -0 -0 0 0 0 0 0 0 0 0 0 0 0 0 0 0 0 0 0 0 0 0 0 0
0 0 0 0 0 0 0 0 0 0 0 0 0 0 0 0 0 -0 0 0 0 0 0 0 0 0 0 0 0 0 0 0 0 0 0 0 0 0 0 0 0 0 0
0 0 0 0 0 0 0 0 0 0 0 0 0 0 0 0 0 0 0 0 0 0 0 0 0 0 0 0 0 0 0 0 0 0 0 0 0 0 0 0 0 0 0
0 0 0 0 0 0 0 0 0 0 0 0 0 0 0 0 0 0 0 0 0 0 0 0 0 0 0 0 0 0 0 0 0 0 0 0 0 0 0 0 0 0 0
0 0 0 0 0 0 0 0 0 0 0 0 0 0 0 0 0 0 0 0 0 0 0 0 0 0 0 0 0 0 0 0 0 0 0 0 0 0 0 0 0 0 0
0 0 0 0 0 0 0 0 0 0 0 0 0 0 0 0 0 0 0 0 0 0 0 0 0 0 0 0 0 0 0 0 0 0 0 0 0 0 0 0 0 0 0
0 0 0 0 0 0 0 0 0 0 0 0 0 0 0 0 0 0 0 0 0 0 0 -0 0 0 0 0 0 0 0 0 0 0 0 0 0 0 0 0 0 0 0
0 0 0 0 0 0 0 0 0 -0 -0 0 -0 0 0 0 0 0 0 0 0 0 0 -0 0 0 0 0 0 0 0 0 0 0 0 0 0 0 0 0 0 0 0
0 0 0 0 0 0 -0 -0 -0 -0 -0 -0 -0 -0 0 0 0 0 0 0 0 0 0 -0 -0 -0 0 0 0 0 0 0 0 0 0 0 0 0 0 0 0 0 0
0 0 0 0 0 0 0 0 -0 0 -0 -0 -0 -0 0 0 0 0 0 0 0 0 0 0 0 0 0 0 0 0 0 0 0 0 0 0 0 0 0 0 0 0 0
0 0 0 0 0 -0 -0 -0 0 0 0 -0 0 -0 -0 0 0 0 0 0 0 0 -0 0 0 0 0 0 0 0 0 0 0 0 0 0 0 0 0 0 0 0 0
0 0 0 0 0 -0 -0 -0 0 0 0 0 -0 -0 0 0 0 0 0 0 0 0 -0 0 0 0 0 0 0 0 0 0 0 0 0 0 0 0 0 0 0 0 0
0 0 0 0 0 0 0 -0 -0 0 0 0 0 0 0 0 0 0 0 0 0 0 -0 -0 -0 0 0 0 0 0 0 0 0 0 0 0 0 0 0 0 0 0 0
0 0 0 0 0 0 0 0 0 0 0 0 0 0 0 0 0 0 0 0 -0 -0 -0 -0 -0 0 0 0 0 0 0 0 0 0 0 0 0 0 0 0 0 0 0
0 0 0 0 0 0 0 0 0 0 0 0 0 0 0 0 0 0 0 0 -0 -0 -0 -0 0 0 0 0 0 0 0 0 0 0 0 0 0 0 0 0 0 0 0
0 0 0 0 0 0 0 0 0 0 0 0 0 0 0 0 0 0 0 0 0 -0 -0 -0 0 0 0 0 0 0 0 0 0 0 0 0 0 0 0 0 0 0 0
0 0 0 0 0 0 0 0 0 0 0 0 0 0 0 0 0 0 0 0 0 0 0 -0 0 0 0 0 0 0 0 0 0 0 0 0 0 0 0 0 0 0 0
0 0 0 0 0 0 0 0 0 0 0 0 0 0 0 0 0 0 0 0 0 0 0 -0 0 0 0 0 0 0 0 0 0 0 0 0 0 0 0 0 0 0 0
0 0 0 0 0 0 0 0 0 0 0 0 0 0 0 0 0 0 0 0 0 0 0 0 0 0 0 0 0 0 0 0 0 0 0 0 0 0 0 0 0 0 0
0 0 0 0 0 0 0 0 0 0 0 0 0 0 0 0 0 0 0 0 0 0 0 0 0 0 0 0 0 0 0 0 0 0 0 0 0 0 0 0 0 0 0
0 0 0 0 0 0 0 0 0 0 0 0 0 0 0 0 0 0 0 0 0 0 0 0 0 0 0 0 0 0 0 0 0 0 0 0 0 0 0 0 0 0 0
0 0 0 0 0 0 0 0 0 0 0 0 0 0 0 0 0 0 0 0 0 0 0 0 0 0 0 0 0 0 0 0 0 0 0 0 0 0 0 0 0 0 0
Wind_Speed_500mb
82 73 73 72 73 77 77 75 76 78 79 77 76 77 79 81 78 79 78 77 75 78 76 71 64 59 62 64 67 67 61 71 72 85 86 80 88 80 80 81 72 67 56
80 70 72 74 76 82 81 78 78 80 78 77 76 78 80 79 78 77 76 77 74 75 78 81 76 64 63 62 63 72 70 69 60 83 88 79 84 82 79 81 77 69 56
84 79 76 79 82 89 84 82 82 82 81 77 76 77 78 78 75 72 73 74 72 73 76 82 83 74 69 63 62 72 74 72 62 76 93 77 85 80 78 75 72 65 58
78 76 78 82 90 88 84 85 87 86 83 79 74 75 76 74 70 71 71 72 73 73 75 81 84 83 71 68 66 68 75 76 76 71 87 88 85 85 82 88 82 75 67
80 75 79 88 87 83 86 89 90 88 82 77 76 74 73 70 68 70 72 73 73 74 78 81 85 83 79 73 72 77 70 76 75 76 83 86 90 89 97 96 92 82 65
78 77 85 86 83 86 88 91 91 87 82 75 73 74 73 68 68 69 72 70 71 72 78 83 87 86 80 75 73 70 75 79 76 80 83 92 95 99 94 98 94 81 64
72 81 84 81 86 86 88 92 92 87 80 74 72 71 72 66 66 70 70 67 69 70 74 80 87 82 76 75 71 65 68 72 81 86 88 95 94 101 103 97 93 84 70
74 80 79 81 82 86 93 93 89 83 79 75 73 71 73 67 66 69 69 68 70 70 70 74 83 82 73 71 66 64 66 66 71 86 93 88 88 90 98 94 93 77 60
76 77 80 78 84 87 90 87 82 80 77 73 72 74 73 71 65 67 68 68 70 73 70 72 81 80 72 62 63 62 61 64 60 70 85 93 89 89 93 86 89 79 69
75 77 72 73 78 83 84 82 76 74 74 73 73 72 72 72 64 67 64 64 71 73 72 75 78 78 69 57 55 56 66 68 66 71 73 78 78 80 79 82 85 86 75
74 66 65 70 74 79 81 76 73 71 72 72 73 72 71 69 66 67 66 61 65 74 78 76 75 79 67 57 46 50 58 60 67 74 75 71 70 70 76 78 73 76 74
65 60 63 70 75 77 80 76 71 70 72 73 74 73 69 71 64 66 69 61 62 72 78 74 73 80 70 57 48 43 43 71 72 74 72 71 74 76 75 71 68 67 61
60 62 66 72 76 79 80 77 73 69 70 71 72 74 73 73 69 64 71 73 74 72 77 70 70 74 66 52 45 34 39 59 67 70 69 71 71 69 70 70 69 63 61
59 65 69 76 81 81 78 74 72 68 68 67 68 73 76 77 75 67 74 82 83 82 80 71 65 69 57 45 35 31 35 49 62 67 70 67 66 68 68 66 64 62 61
60 66 72 78 83 86 77 72 68 64 59 58 61 66 71 76 76 68 72 81 82 81 83 70 65 71 54 40 33 31 39 48 57 64 64 66 67 66 63 61 60 62 61
66 71 76 82 84 82 77 74 62 63 55 54 49 49 59 61 64 66 71 73 73 70 66 62 62 61 49 40 36 34 41 48 54 57 58 63 65 63 61 59 58 59 57
70 74 80 80 78 72 70 71 76 60 59 56 52 51 54 59 60 61 65 69 65 63 54 54 53 55 48 40 37 36 42 46 46 50 50 56 59 57 58 59 61 55 51
71 74 76 73 68 64 63 64 66 68 69 69 61 53 51 57 57 54 58 63 64 53 47 46 48 46 51 40 40 38 41 43 42 41 44 54 55 56 60 63 62 58 56
71 72 68 62 60 58 59 60 61 62 63 65 66 58 53 53 53 51 52 56 61 58 52 46 41 38 44 43 38 40 40 39 38 36 44 50 53 55 56 57 58 54 52
66 62 59 56 54 53 55 58 60 61 62 63 63 63 66 64 63 62 59 58 59 58 53 48 42 37 30 46 38 36 39 39 38 37 41 47 49 49 50 50 54 58 54
56 54 53 51 50 50 53 55 57 59 61 63 62 58 57 61 65 63 64 62 61 59 56 50 44 38 31 29 48 36 35 40 41 41 40 42 41 41 39 44 47 53 49
50 49 48 48 49 49 49 51 54 57 59 61 62 56 54 54 57 59 60 62 62 58 55 53 46 39 33 30 40 42 35 38 44 47 44 41 39 36 40 45 44 45 49
46 45 44 43 43 46 47 46 50 53 56 58 59 60 56 54 55 57 59 62 62 59 52 49 45 39 34 30 30 39 36 36 43 44 41 41 41 35 38 43 44 47 53
42 40 41 43 42 43 44 45 45 47 50 53 55 53 54 54 54 55 57 61 62 57 51 47 42 38 35 31 29 34 34 30 33 36 37 36 36 37 42 44 46 46 47
37 36 37 39 39 40 41 42 42 42 44 48 50 50 51 52 54 54 57 60 61 59 52 46 40 37 33 31 31 27 30 31 34 37 40 31 32 39 43 44 48 49 50
34 32 33 35 35 36 38 39 40 41 41 43 45 47 50 53 55 56 59 62 64 61 53 47 40 34 29 27 29 22 26 27 31 37 39 36 35 39 43 46 49 51 55
Wind_Direction_500mb
337 333 332 332 330 330 327 324 324 322 322 321 321 322 324 325 327 327 323 321 319 318 317 309 303 298 287 281 279 277 274 267 264 262 259 254 245 241 233 229 229 232 235
335 330 327 327 326 328 325 323 324 323 320 318 318 319 320 321 322 324 321 318 317 318 318 313 306 303 293 280 278 277 273 275 272 259 253 251 239 232 228 224 223 228 232
331 326 325 325 323 324 322 321 320 321 320 317 316 318 320 321 320 321 319 317 314 313 317 316 309 302 296 286 275 276 274 270 269 260 254 250 240 232 224 220 223 222 223
325 322 322 322 321 320 319 319 319 319 318 315 315 317 319 320 322 321 318 315 312 312 313 314 312 304 297 292 280 275 273 268 264 259 254 252 241 234 223 217 211 216 217
321 313 315 318 318 315 315 316 318 318 316 314 315 317 318 319 322 322 319 314 311 310 311 314 312 306 297 293 283 267 271 267 256 248 243 244 238 223 214 215 215 213 211
315 311 315 315 314 314 313 314 316 316 314 314 314 318 318 320 323 321 318 311 308 307 311 315 314 308 301 298 291 275 259 262 252 241 233 233 236 228 214 215 211 206 199
308 312 313 312 312 312 312 312 313 315 313 312 314 317 318 321 327 324 321 312 309 305 308 315 316 310 304 298 294 281 269 260 254 252 241 240 231 233 220 211 215 212 213
308 312 311 311 312 313 312 311 311 311 311 312 313 316 317 322 326 325 323 315 308 307 307 316 319 314 304 296 287 281 276 270 257 250 249 253 245 241 228 222 213 211 217
308 311 312 313 315 316 315 313 312 309 309 310 312 314 316 319 323 325 324 317 311 310 309 314 320 316 304 297 280 279 277 274 268 255 247 240 240 241 234 213 209 207 205
309 312 314 317 319 319 317 315 313 310 309 309 310 312 314 316 321 322 326 319 314 315 310 309 321 320 310 302 288 279 280 274 268 252 240 238 231 226 227 215 215 204 202
309 311 315 319 322 322 318 317 314 312 310 309 310 311 312 316 319 320 323 322 317 316 311 310 321 324 311 304 293 282 271 271 264 250 237 226 221 216 208 211 214 209 204
306 310 316 320 323 324 320 317 314 313 311 312 312 312 314 316 320 320 320 320 318 315 313 312 317 324 311 302 294 287 276 257 246 235 228 218 213 208 206 200 199 203 202
305 312 317 320 323 325 322 318 315 314 314 315 316 316 317 317 321 320 318 320 321 319 317 316 312 321 312 299 289 287 272 251 241 229 216 208 204 200 194 190 188 190 194
305 313 317 319 322 323 322 318 316 316 316 317 317 319 319 318 320 323 319 320 322 322 323 316 315 322 310 304 292 278 263 253 240 225 211 205 197 191 189 190 186 188 190
309 314 317 319 321 321 321 319 317 316 318 315 314 314 315 315 317 317 316 314 318 320 317 314 315 316 315 314 292 258 243 235 225 219 211 200 194 193 190 189 190 186 187
313 317 319 320 320 321 320 318 316 318 318 317 316 310 310 308 313 314 311 316 318 322 318 318 319 317 313 306 279 248 236 229 226 220 213 206 200 196 190 187 188 185 183
314 317 317 319 319 321 322 323 322 317 322 322 326 322 319 315 318 317 316 317 323 322 316 315 316 322 314 297 275 254 238 233 234 227 221 214 206 199 193 184 181 179 170
314 316 317 318 320 321 323 324 324 325 323 322 327 330 324 317 320 323 323 321 320 322 318 310 315 317 315 299 274 257 244 238 230 226 220 212 205 199 194 189 183 181 175
315 316 316 317 318 320 322 323 325 326 327 326 325 326 327 323 325 331 331 330 327 326 323 310 312 314 304 308 291 266 254 243 234 223 217 210 206 201 197 193 188 183 179
315 314 315 317 318 320 322 324 328 329 330 329 331 331 330 330 333 334 336 334 330 327 324 313 307 310 302 291 299 280 258 243 233 226 220 214 208 204 200 197 196 189 187
315 314 315 316 319 321 323 326 330 333 334 333 332 333 333 329 328 331 334 334 332 328 325 316 307 301 302 280 285 284 270 245 233 225 218 211 206 204 204 205 203 198 190
315 315 315 316 319 321 323 326 330 333 335 335 334 335 332 329 329 332 333 334 333 330 324 317 308 299 294 282 263 284 271 251 232 225 218 211 207 205 207 205 205 199 191
313 313 313 315 317 319 321 324 326 330 335 338 337 336 338 336 335 336 335 335 334 331 325 317 308 297 287 275 258 275 269 254 238 228 223 218 211 206 213 209 205 198 195
312 312 312 315 318 320 322 325 328 331 335 339 340 342 343 343 342 341 340 339 337 333 328 322 312 304 289 267 252 266 269 252 232 224 224 216 213 213 214 213 208 200 197
312 312 314 316 319 324 327 329 331 335 340 343 346 349 350 349 349 348 346 345 342 340 335 328 320 307 289 261 243 253 260 243 226 210 206 208 215 215 214 213 207 199 196
312 312 317 317 318 325 329 332 336 341 346 349 351 354 354 352 353 352 351 351 349 344 340 336 327 313 295 257 235 236 250 237 224 212 207 199 206 210 211 210 204 198 193
Wind_Speed_850mb
82 73 73 72 73 77 77 75 76 78 79 77 76 77 79 81 78 79 78 77 75 78 76 71 64 59 62 64 67 67 61 71 72 85 86 80 88 80 80 81 72 67 56
80 70 72 74 76 82 81 78 78 80 78 77 76 78 80 79 78 77 76 77 74 75 78 81 76 64 63 62 63 72 70 69 60 83 88 79 84 82 79 81 77 69 56
84 79 76 79 82 89 84 82 82 82 81 77 76 77 78 78 75 72 73 74 72 73 76 82 83 74 69 63 62 72 74 72 62 76 93 77 85 80 78 75 72 65 58
78 76 78 82 90 88 84 85 87 86 83 79 74 75 76 74 70 71 71 72 73 73 75 81 84 83 71 68 66 68 75 76 76 71 87 88 85 85 82 88 82 75 67
80 75 79 88 87 83 86 89 90 88 82 77 76 74 73 70 68 70 72 73 73 74 78 81 85 83 79 73 72 77 70 76 75 76 83 86 90 89 97 96 92 82 65
78 77 85 86 83 86 88 91 91 87 82 75 73 74 73 68 68 69 72 70 71 72 78 83 87 86 80 75 73 70 75 79 76 80 83 92 95 99 94 98 94 81 64
72 81 84 81 86 86 88 92 92 87 80 74 72 71 72 66 66 70 70 67 69 70 74 80 87 82 76 75 71 65 68 72 81 86 88 95 94 101 103 97 93 84 70
74 80 79 81 82 86 93 93 89 83 79 75 73 71 73 67 66 69 69 68 70 70 70 74 83 82 73 71 66 64 66 66 71 86 93 88 88 90 98 94 93 77 60
76 77 80 78 84 87 90 87 82 80 77 73 72 74 73 71 65 67 68 68 70 73 70 72 81 80 72 62 63 62 61 64 60 70 85 93 89 89 93 86 89 79 69
75 77 72 73 78 83 84 82 76 74 74 73 73 72 72 72 64 67 64 64 71 73 72 75 78 78 69 57 55 56 66 68 66 71 73 78 78 80 79 82 85 86 75
74 66 65 70 74 79 81 76 73 71 72 72 73 72 71 69 66 67 66 61 65 74 78 76 75 79 67 57 46 50 58 60 67 74 75 71 70 70 76 78 73 76 74
65 60 63 70 75 77 80 76 71 70 72 73 74 73 69 71 64 66 69 61 62 72 78 74 73 80 70 57 48 43 43 71 72 74 72 71 74 76 75 71 68 67 61
60 62 66 72 76 79 80 77 73 69 70 71 72 74 73 73 69 64 71 73 74 72 77 70 70 74 66 52 45 34 39 59 67 70 69 71 71 69 70 70 69 63 61
59 65 69 76 81 81 78 74 72 68 68 67 68 73 76 77 75 67 74 82 83 82 80 71 65 69 57 45 35 31 35 49 62 67 70 67 66 68 68 66 64 62 61
60 66 72 78 83 86 77 72 68 64 59 58 61 66 71 76 76 68 72 81 82 81 83 70 65 71 54 40 33 31 39 48 57 64 64 66 67 66 63 61 60 62 61
66 71 76 82 84 82 77 74 62 63 55 54 49 49 59 61 64 66 71 73 73 70 66 62 62 61 49 40 36 34 41 48 54 57 58 63 65 63 61 59 58 59 57
70 74 80 80 78 72 70 71 76 60 59 56 52 51 54 59 60 61 65 69 65 63 54 54 53 55 48 40 37 36 42 46 46 50 50 56 59 57 58 59 61 55 51
71 74 76 73 68 64 63 64 66 68 69 69 61 53 51 57 57 54 58 63 64 53 47 46 48 46 51 40 40 38 41 43 42 41 44 54 55 56 60 63 62 58 56
71 72 68 62 60 58 59 60 61 62 63 65 66 58 53 53 53 51 52 56 61 58 52 46 41 38 44 43 38 40 40 39 38 36 44 50 53 55 56 57 58 54 52
66 62 59 56 54 53 55 58 60 61 62 63 63 63 66 64 63 62 59 58 59 58 53 48 42 37 30 46 38 36 39 39 38 37 41 47 49 49 50 50 54 58 54
56 54 53 51 50 50 53 55 57 59 61 63 62 58 57 61 65 63 64 62 61 59 56 50 44 38 31 29 48 36 35 40 41 41 40 42 41 41 39 44 47 53 49
50 49 48 48 49 49 49 51 54 57 59 61 62 56 54 54 57 59 60 62 62 58 55 53 46 39 33 30 40 42 35 38 44 47 44 41 39 36 40 45 44 45 49
46 45 44 43 43 46 47 46 50 53 56 58 59 60 56 54 55 57 59 62 62 59 52 49 45 39 34 30 30 39 36 36 43 44 41 41 41 35 38 43 44 47 53
42 40 41 43 42 43 44 45 45 47 50 53 55 53 54 54 54 55 57 61 62 57 51 47 42 38 35 31 29 34 34 30 33 36 37 36 36 37 42 44 46 46 47
37 36 37 39 39 40 41 42 42 42 44 48 50 50 51 52 54 54 57 60 61 59 52 46 40 37 33 31 31 27 30 31 34 37 40 31 32 39 43 44 48 49 50
34 32 33 35 35 36 38 39 40 41 41 43 45 47 50 53 55 56 59 62 64 61 53 47 40 34 29 27 29 22 26 27 31 37 39 36 35 39 43 46 49 51 55
Wind_Direction_850mb
337 333 332 332 330 330 327 324 324 322 322 321 321 322 324 325 327 327 323 321 319 318 317 309 303 298 287 281 279 277 274 267 264 262 259 254 245 241 233 229 229 232 235
335 330 327 327 326 328 325 323 324 323 320 318 318 319 320 321 322 324 321 318 317 318 318 313 306 303 293 280 278 277 273 275 272 259 253 251 239 232 228 224 223 228 232
331 326 325 325 323 324 322 321 320 321 320 317 316 318 320 321 320 321 319 317 314 313 317 316 309 302 296 286 275 276 274 270 269 260 254 250 240 232 224 220 223 222 223
325 322 322 322 321 320 319 319 319 319 318 315 315 317 319 320 322 321 318 315 312 312 313 314 312 304 297 292 280 275 273 268 264 259 254 252 241 234 223 217 211 216 217
321 313 315 318 318 315 315 316 318 318 316 314 315 317 318 319 322 322 319 314 311 310 311 314 312 306 297 293 283 267 271 267 256 248 243 244 238 223 214 215 215 213 211
315 311 315 315 314 314 313 314 316 316 314 314 314 318 318 320 323 321 318 311 308 307 311 315 314 308 301 298 291 275 259 262 252 241 233 233 236 228 214 215 211 206 199
308 312 313 312 312 312 312 312 313 315 313 312 314 317 318 321 327 324 321 312 309 305 308 315 316 310 304 298 294 281 269 260 254 252 241 240 231 233 220 211 215 212 213
308 312 311 311 312 313 312 311 311 311 311 312 313 316 317 322 326 325 323 315 308 307 307 316 319 314 304 296 287 281 276 270 257 250 249 253 245 241 228 222 213 211 217
308 311 312 313 315 316 315 313 312 309 309 310 312 314 316 319 323 325 324 317 311 310 309 314 320 316 304 297 280 279 277 274 268 255 247 240 240 241 234 213 209 207 205
309 312 314 317 319 319 317 315 313 310 309 309 310 312 314 316 321 322 326 319 314 315 310 309 321 320 310 302 288 279 280 274 268 252 240 238 231 226 227 215 215 204 202
309 311 315 319 322 322 318 317 314 312 310 309 310 311 312 316 319 320 323 322 317 316 311 310 321 324 311 304 293 282 271 271 264 250 237 226 221 216 208 211 214 209 204
306 310 316 320 323 324 320 317 314 313 311 312 312 312 314 316 320 320 320 320 318 315 313 312 317 324 311 302 294 287 276 257 246 235 228 218 213 208 206 200 199 203 202
305 312 317 320 323 325 322 318 315 314 314 315 316 316 317 317 321 320 318 320 321 319 317 316 312 321 312 299 289 287 272 251 241 229 216 208 204 200 194 190 188 190 194
305 313 317 319 322 323 322 318 316 316 316 317 317 319 319 318 320 323 319 320 322 322 323 316 315 322 310 304 292 278 263 253 240 225 211 205 197 191 189 190 186 188 190
309 314 317 319 321 321 321 319 317 316 318 315 314 314 315 315 317 317 316 314 318 320 317 314 315 316 315 314 292 258 243 235 225 219 211 200 194 193 190 189 190 186 187
313 317 319 320 320 321 320 318 316 318 318 317 316 310 310 308 313 314 311 316 318 322 318 318 319 317 313 306 279 248 236 229 226 220 213 206 200 196 190 187 188 185 183
314 317 317 319 319 321 322 323 322 317 322 322 326 322 319 315 318 317 316 317 323 322 316 315 316 322 314 297 275 254 238 233 234 227 221 214 206 199 193 184 181 179 170
314 316 317 318 320 321 323 324 324 325 323 322 327 330 324 317 320 323 323 321 320 322 318 310 315 317 315 299 274 257 244 238 230 226 220 212 205 199 194 189 183 181 175
315 316 316 317 318 320 322 323 325 326 327 326 325 326 327 323 325 331 331 330 327 326 323 310 312 314 304 308 291 266 254 243 234 223 217 210 206 201 197 193 188 183 179
315 314 315 317 318 320 322 324 328 329 330 329 331 331 330 330 333 334 336 334 330 327 324 313 307 310 302 291 299 280 258 243 233 226 220 214 208 204 200 197 196 189 187
315 314 315 316 319 321 323 326 330 333 334 333 332 333 333 329 328 331 334 334 332 328 325 316 307 301 302 280 285 284 270 245 233 225 218 211 206 204 204 205 203 198 190
315 315 315 316 319 321 323 326 330 333 335 335 334 335 332 329 329 332 333 334 333 330 324 317 308 299 294 282 263 284 271 251 232 225 218 211 207 205 207 205 205 199 191
313 313 313 315 317 319 321 324 326 330 335 338 337 336 338 336 335 336 335 335 334 331 325 317 308 297 287 275 258 275 269 254 238 228 223 218 211 206 213 209 205 198 195
312 312 312 315 318 320 322 325 328 331 335 339 340 342 343 343 342 341 340 339 337 333 328 322 312 304 289 267 252 266 269 252 232 224 224 216 213 213 214 213 208 200 197
312 312 314 316 319 324 327 329 331 335 340 343 346 349 350 349 349 348 346 345 342 340 335 328 320 307 289 261 243 253 260 243 226 210 206 208 215 215 214 213 207 199 196
312 312 317 317 318 325 329 332 336 341 346 349 351 354 354 352 353 352 351 351 349 344 340 336 327 313 295 257 235 236 250 237 224 212 207 199 206 210 211 210 204 198 193